EW6341 Weather Reports


Display with metric or nautical units.
time (UTC)temp
F
wind
direction
speed
MPH
gust
MPH
rain 1hr
in
rain 24hr
in
rain mn
in
humidity
%
barometer
mb
20260502203828 89 97 0.0 0.0 0.00 0.00 0.00 1 1007.5
20260502203321 90 98 0.0 0.0 0.00 0.00 0.00 1 1007.6
20260502202820 89 103 0.0 0.0 0.00 0.00 0.00 1 1007.6
20260502202319 89 117 0.0 0.0 0.00 0.00 0.00 1 1007.6
20260502201820 89 131 0.0 0.0 0.00 0.00 0.00 1 1007.6
20260502201319 89 136 0.0 0.0 0.00 0.00 0.00 1 1007.6
20260502200818 89 122 0.0 0.0 0.00 0.00 0.00 1 1007.6
20260502200317 90 102 0.0 0.0 0.00 0.00 0.00 1 1007.6
20260502195819 90 118 0.0 0.0 0.00 0.00 0.00 1 1007.6
20260502195316 89 128 0.0 0.0 0.00 0.00 0.00 1 1007.6
20260502194814 89 131 0.0 0.0 0.00 0.00 0.00 1 1007.7
20260502194313 89 115 0.0 0.0 0.00 0.00 0.00 1 1007.7
20260502193815 89 139 0.0 0.0 0.00 0.00 0.00 1 1007.7
20260502193313 89 105 0.0 0.0 0.00 0.00 0.00 1 1007.8
20260502192815 89 124 0.0 0.0 0.00 0.00 0.00 1 1007.9
20260502192314 89 126 0.0 0.0 0.00 0.00 0.00 1 1008.0
20260502191813 89 134 0.0 0.0 0.00 0.00 0.00 1 1008.1
20260502191313 89 141 0.0 0.0 0.00 0.00 0.00 1 1008.1
20260502190814 89 131 0.0 0.0 0.00 0.00 0.00 1 1008.2
20260502190308 89 129 0.0 0.0 0.00 0.00 0.00 1 1008.3
20260502185801 89 90 0.0 0.0 0.00 0.00 0.00 1 1008.3
20260502185256 89 136 0.0 0.0 0.00 0.00 0.00 1 1008.3
20260502184749 89 126 0.0 0.0 0.00 0.00 0.00 1 1008.3
20260502184244 89 113 0.0 0.0 0.00 0.00 0.00 1 1008.4
20260502183738 89 126 0.0 0.0 0.00 0.00 0.00 1 1008.4
20260502183230 89 110 0.0 0.0 0.00 0.00 0.00 1 1008.5
20260502182725 89 131 0.0 0.0 0.00 0.00 0.00 1 1008.6
20260502182219 89 101 0.0 0.0 0.00 0.00 0.00 1 1008.7
20260502181946 89 115 0.0 0.0 0.00 0.00 0.00 1 1008.8
20260502181207 89 115 0.0 0.0 0.00 0.00 0.00 1 1008.8
20260502180703 90 89 0.0 0.0 0.00 0.00 0.00 1 1008.9
20260502180156 89 123 0.0 0.0 0.00 0.00 0.00 1 1008.9
20260502170134 89 112 0.0 0.0 0.00 0.00 0.00 1 1009.6
20260502164130 89 122 0.0 0.0 0.00 0.00 0.00 1 1009.6
20260502163629 89 103 0.0 0.0 0.00 0.00 0.00 1 1009.7
20260502163129 88 107 0.0 0.0 0.00 0.00 0.00 1 1009.7
20260502162630 88 110 0.0 0.0 0.00 0.00 0.00 1 1009.8
20260502162128 88 114 0.0 0.0 0.00 0.00 0.00 1 1009.8
20260502161626 89 90 0.0 0.0 0.00 0.00 0.00 1 1009.8
20260502161125 89 102 0.0 0.0 0.00 0.00 0.00 1 1009.9
20260502160625 88 127 0.0 0.0 0.00 0.00 0.00 1 1009.9
20260502160125 88 98 0.0 0.0 0.00 0.00 0.00 1 1009.9
20260502152122 87 94 0.0 0.0 0.00 0.00 0.00 1 1009.9
20260502151621 87 92 0.0 0.0 0.00 0.00 0.00 1 1009.9
20260502151350 87 105 0.0 0.0 0.00 0.00 0.00 1 1009.9
20260502150852 87 125 0.0 0.0 0.00 0.00 0.00 1 1009.9
20260502150119 87 91 0.0 0.0 0.00 0.00 0.00 1 1009.9
20260502140109 86 123 0.0 0.0 0.00 0.00 0.00 1 1009.3
20260502130535 85 98 0.0 0.0 0.00 0.00 0.00 1 1009.1
20260502130302 85 104 0.0 0.0 0.00 0.00 0.00 1 1009.1
20260502123521 84 89 0.0 0.0 0.00 0.00 0.00 1 1008.8
20260502123020 84 103 0.0 0.0 0.00 0.00 0.00 1 1008.8
20260502122523 84 105 0.0 0.0 0.00 0.00 0.00 1 1008.7
20260502122019 84 110 0.0 0.0 0.00 0.00 0.00 1 1008.6
20260502121519 84 108 0.0 0.0 0.00 0.00 0.00 1 1008.5
20260502121016 84 101 0.0 0.0 0.00 0.00 0.00 1 1008.5
20260502120747 0 0.0 0.0 0.00 0.00 0.00 1008.5
20260502115410 0 0.0 0.0 0.00 0.00 0.00 1008.3
20260502114907 0 0.0 0.0 0.00 0.00 0.00 1008.3
20260502114318 0 0.0 0.0 0.00 0.00 0.00 1008.1
20260502113817 82 0.0 0.0 0.00 0.00 0.00 1 1008.1
20260502113310 82 92 0.0 0.0 0.00 0.00 0.00 1 1008.1
20260502112809 82 92 0.0 0.0 0.00 0.00 0.00 1 1008.1
20260502112306 82 92 0.0 0.0 0.00 0.00 0.00 1 1008.1
20260502111716 82 92 0.0 0.0 0.00 0.00 0.00 1 1008.0
20260502111218 82 92 0.0 0.0 0.00 0.00 0.00 1 1007.9
20260502110704 82 92 0.0 0.0 0.00 0.00 0.00 1 1007.9
20260502110437 82 92 0.0 0.0 0.00 0.00 0.00 1 1007.8
20260502105610 82 92 0.0 0.0 0.00 0.00 0.00 1 1007.8
20260502105016 82 92 0.0 0.0 0.00 0.00 0.00 1 1007.7
20260502104740 82 92 0.0 0.0 0.00 0.00 0.00 1 1007.7
20260502104234 82 92 0.0 0.0 0.00 0.00 0.00 1 1007.6
20260502103411 82 92 0.0 0.0 0.00 0.00 0.00 1 1007.6
20260502102817 82 92 0.0 0.0 0.00 0.00 0.00 1 1007.5
20260502102216 82 92 0.0 0.0 0.00 0.00 0.00 1 1007.5
20260502101702 82 92 0.0 0.0 0.00 0.00 0.00 1 1007.4
20260502101111 82 92 0.0 0.0 0.00 0.00 0.00 1 1007.3
20260502100610 82 92 0.0 0.0 0.00 0.00 0.00 1 1007.2
20260502100107 82 92 0.0 0.0 0.00 0.00 0.00 1 1007.3
20260502091404 83 103 0.0 0.0 0.00 0.00 0.00 1 1007.2
20260502090859 83 105 0.0 0.0 0.00 0.00 0.00 1 1007.3
20260502090353 84 101 0.0 0.0 0.00 0.00 0.00 1 1007.3
20260502071238 83 110 0.0 0.0 0.00 0.00 0.00 1 1008.1
20260502070734 83 105 0.0 0.0 0.00 0.00 0.00 1 1008.3
20260502070232 83 102 0.0 0.0 0.00 0.00 0.00 1 1008.3
20260502065732 83 92 0.0 0.0 0.00 0.00 0.00 1 1008.3
20260502065231 83 98 0.0 0.0 0.00 0.00 0.00 1 1008.4
20260502064732 83 105 0.0 0.0 0.00 0.00 0.00 1 1008.5
20260502064232 83 93 0.0 0.0 0.00 0.00 0.00 1 1008.5
20260502063730 83 95 0.0 0.0 0.00 0.00 0.00 1 1008.6
20260502063247 84 112 0.0 0.0 0.00 0.00 0.00 1 1008.6
20260502063230 83 79 0.0 0.0 0.00 0.00 0.00 1 1008.7
20260502062230 84 109 0.0 0.0 0.00 0.00 0.00 1 1008.6
20260502062002 84 101 0.0 0.0 0.00 0.00 0.00 1 1008.7
20260502061230 83 105 0.0 0.0 0.00 0.00 0.00 1 1008.8
20260502060731 83 101 0.0 0.0 0.00 0.00 0.00 1 1008.8
20260502060230 84 102 0.0 0.0 0.00 0.00 0.00 1 1008.9
20260502055732 84 107 0.0 0.0 0.00 0.00 0.00 1 1008.9
20260502055226 84 113 0.0 0.0 0.00 0.00 0.00 1 1008.9
20260502054721 84 101 0.0 0.0 0.00 0.00 0.00 1 1008.9
20260502054446 84 91 0.0 0.0 0.00 0.00 0.00 1 1009.0
20260502053709 84 96 0.0 0.0 0.00 0.00 0.00 1 1009.0
20260502053203 84 94 0.0 0.0 0.00 0.00 0.00 1 1009.1
20260502052928 84 108 0.0 0.0 0.00 0.00 0.00 1 1009.2
20260502052152 84 95 0.0 0.0 0.00 0.00 0.00 1 1009.2
20260502051654 84 97 0.0 0.0 0.00 0.00 0.00 1 1009.2
20260502051423 84 94 0.0 0.0 0.00 0.00 0.00 1 1009.3
20260502050653 84 118 0.0 0.0 0.00 0.00 0.00 1 1009.4
20260502050154 84 130 0.0 0.0 0.00 0.00 0.00 1 1009.3
20260502045654 84 121 0.0 0.0 0.00 0.00 0.00 1 1009.3
20260502045152 84 104 0.0 0.0 0.00 0.00 0.00 1 1009.4
20260502044653 84 110 0.0 0.0 0.00 0.00 0.00 1 1009.3
20260502044150 84 97 0.0 0.0 0.00 0.00 0.00 1 1009.3
20260502043649 84 109 0.0 0.0 0.00 0.00 0.00 1 1009.3
20260502043422 84 99 0.0 0.0 0.00 0.00 0.00 1 1009.2
20260502042920 84 108 0.0 0.0 0.00 0.00 0.00 1 1009.3
20260502042146 84 88 0.0 0.0 0.00 0.00 0.00 1 1009.3
20260502041648 84 101 0.0 0.0 0.00 0.00 0.00 1 1009.3
20260502041147 84 113 0.0 0.0 0.00 0.00 0.00 1 1009.2
20260502040648 84 101 0.0 0.0 0.00 0.00 0.00 1 1009.1
20260502040420 84 99 0.0 0.0 0.00 0.00 0.00 1 1009.1
20260502035647 84 80 0.0 0.0 0.00 0.00 0.00 1 1009.1
20260502035140 84 117 0.0 0.0 0.00 0.00 0.00 1 1009.0
20260502034634 84 113 0.0 0.0 0.00 0.00 0.00 1 1008.9
20260502034130 84 93 0.0 0.0 0.00 0.00 0.00 1 1008.9
20260502033621 84 91 0.0 0.0 0.00 0.00 0.00 1 1008.8
20260502033348 84 105 0.0 0.0 0.00 0.00 0.00 1 1008.7
20260502032610 84 101 0.0 0.0 0.00 0.00 0.00 1 1008.7
20260502032104 84 94 0.0 0.0 0.00 0.00 0.00 1 1008.6
20260502031559 84 93 0.0 0.0 0.00 0.00 0.00 1 1008.6
20260502031323 84 103 0.0 0.0 0.00 0.00 0.00 1 1008.5
20260502030548 84 94 0.0 0.0 0.00 0.00 0.00 1 1008.4
20260502030041 84 106 0.0 0.0 0.00 0.00 0.00 1 1008.4
20260502025533 84 96 0.0 0.0 0.00 0.00 0.00 1 1008.3
20260502025029 84 124 0.0 0.0 0.00 0.00 0.00 1 1008.3
20260502024522 84 102 0.0 0.0 0.00 0.00 0.00 1 1008.3
20260502024248 84 110 0.0 0.0 0.00 0.00 0.00 1 1008.2
20260502023510 84 115 0.0 0.0 0.00 0.00 0.00 1 1008.2
20260502023004 84 103 0.0 0.0 0.00 0.00 0.00 1 1008.2
20260502022502 84 99 0.0 0.0 0.00 0.00 0.00 1 1008.1
20260502021953 84 84 0.0 0.0 0.00 0.00 0.00 1 1007.9
20260502021447 84 98 0.0 0.0 0.00 0.00 0.00 1 1007.8
20260502021212 84 101 0.0 0.0 0.00 0.00 0.00 1 1007.8
20260502020433 84 109 0.0 0.0 0.00 0.00 0.00 1 1007.7
20260502015927 84 101 0.0 0.0 0.00 0.00 0.00 1 1007.7
20260502015422 84 79 0.0 0.0 0.00 0.00 0.00 1 1007.7
20260502014919 84 91 0.0 0.0 0.00 0.00 0.00 1 1007.7
20260502014411 84 94 0.0 0.0 0.00 0.00 0.00 1 1007.7
20260502013909 84 102 0.0 0.0 0.00 0.00 0.00 1 1007.6
20260502013409 84 106 0.0 0.0 0.00 0.00 0.00 1 1007.6
20260502012908 84 83 0.0 0.0 0.00 0.00 0.00 1 1007.4
20260502012642 84 115 0.0 0.0 0.00 0.00 0.00 1 1007.4
20260502011907 84 105 0.0 0.0 0.00 0.00 0.00 1 1007.3
20260502011409 84 101 0.0 0.0 0.00 0.00 0.00 1 1007.3
20260502010908 84 106 0.0 0.0 0.00 0.00 0.00 1 1007.2
20260502010407 84 106 0.0 0.0 0.00 0.00 0.00 1 1007.2
20260502005909 84 86 0.0 0.0 0.00 0.00 0.00 1 1007.0
20260502005408 84 107 0.0 0.0 0.00 0.00 0.00 1 1007.1
20260502004909 84 84 0.0 0.0 0.00 0.00 0.00 1 1007.0
20260502004641 84 81 0.0 0.0 0.00 0.00 0.00 1 1006.9
20260502003922 84 96 0.0 0.0 0.00 0.00 0.00 1 1006.7
20260502003908 84 89 0.0 0.0 0.00 0.00 0.00 1 1006.9
20260502002908 84 94 0.0 0.0 0.00 0.00 0.00 1 1006.8
20260502002421 85 112 0.0 0.0 0.00 0.00 0.00 1 1006.8
20260502002408 85 86 0.0 0.0 0.00 0.00 0.00 1 1006.8
20260502001407 85 110 0.0 0.0 0.00 0.00 0.00 1 1006.7
20260502000907 85 116 0.0 0.0 0.00 0.00 0.00 1 1006.7
20260502000404 85 93 0.0 0.0 0.00 0.00 0.00 1 1006.6
20260501235904 85 108 0.0 0.0 0.00 0.00 0.00 1 1006.6
20260501235405 85 104 0.0 0.0 0.00 0.00 0.00 1 1006.6
20260501234903 85 115 0.0 0.0 0.00 0.00 0.00 1 1006.6
20260501234403 85 103 0.0 0.0 0.00 0.00 0.00 1 1006.5
20260501233901 85 90 0.0 0.0 0.00 0.00 0.00 1 1006.4
20260501233400 85 107 0.0 0.0 0.00 0.00 0.00 1 1006.4
20260501232900 85 104 0.0 0.0 0.00 0.00 0.00 1 1006.3
20260501232400 86 111 0.0 0.0 0.00 0.00 0.00 1 1006.3
20260501231900 86 111 0.0 0.0 0.00 0.00 0.00 1 1006.4
20260501231402 86 94 0.0 0.0 0.00 0.00 0.00 1 1006.4
20260501230854 86 115 0.0 0.0 0.00 0.00 0.00 1 1006.4
20260501230354 86 108 0.0 0.0 0.00 0.00 0.00 1 1006.4
20260501225854 86 102 0.0 0.0 0.00 0.00 0.00 1 1006.4
20260501225355 86 100 0.0 0.0 0.00 0.00 0.00 1 1006.4
20260501224854 86 106 0.0 0.0 0.00 0.00 0.00 1 1006.3
20260501224355 86 72 0.0 0.0 0.00 0.00 0.00 1 1006.3
20260501223854 87 94 0.0 0.0 0.00 0.00 0.00 1 1006.3
20260501223355 87 92 0.0 0.0 0.00 0.00 0.00 1 1006.3
20260501222853 87 110 0.0 0.0 0.00 0.00 0.00 1 1006.2
20260501222356 87 70 0.0 0.0 0.00 0.00 0.00 1 1006.2
20260501221850 87 108 0.0 0.0 0.00 0.00 0.00 1 1006.1
20260501221350 87 114 0.0 0.0 0.00 0.00 0.00 1 1006.2
20260501220851 87 100 0.0 0.0 0.00 0.00 0.00 1 1006.3
20260501220350 87 121 0.0 0.0 0.00 0.00 0.00 1 1006.3
20260501220124 87 118 0.0 0.0 0.00 0.00 0.00 1 1006.2
20260501215350 87 128 0.0 0.0 0.00 0.00 0.00 1 1006.3
20260501215122 87 77 0.0 0.0 0.00 0.00 0.00 1 1006.2
20260501214351 87 91 0.0 0.0 0.00 0.00 0.00 1 1006.2
20260501213851 87 117 0.0 0.0 0.00 0.00 0.00 1 1006.2
20260501213348 87 122 0.0 0.0 0.00 0.00 0.00 1 1006.2
20260501212848 87 108 0.0 0.0 0.00 0.00 0.00 1 1006.2
20260501212348 88 105 0.0 0.0 0.00 0.00 0.00 1 1006.2
20260501211843 88 87 0.0 0.0 0.00 0.00 0.00 1 1006.2
20260501211344 87 83 0.0 0.0 0.00 0.00 0.00 1 1006.3
20260501210844 87 98 0.0 0.0 0.00 0.00 0.00 1 1006.4
20260501210345 87 86 0.0 0.0 0.00 0.00 0.00 1 1006.4
20260501205844 87 88 0.0 0.0 0.00 0.00 0.00 1 1006.4
20260501205342 87 128 0.0 0.0 0.00 0.00 0.00 1 1006.4
20260501204843 87 102 0.0 0.0 0.00 0.00 0.00 1 1006.5
20260501204341 87 109 0.0 0.0 0.00 0.00 0.00 1 1006.6